Location: Houston
(29.7630°N, 95.3630°W)
Time: 07:45:38
(UTC-05:00)

Amateur Radio Satellites - All Passes

Search period start: 24 October 2014 07:15
Search period end: 25 October 2014 07:15
Location: Houston, 29.7630°N, 95.3630°W

Satellite Date Start Highest point End Downlink Frequencies (MHz)
Time Altitude Azimuth
AO-7 24 Oct 07:17:05 07:23:21 25° 299° (WNW) 07:29:38 29.400 - 29.500 MHz
STRAND 1 24 Oct 07:23:47 07:28:52 72° 75° (ENE) 07:34:00 ?
Saudisat 1A 24 Oct 07:35:11 07:39:20 45° 113° (ESE) 07:43:32 436.775 MHz
RS-15 24 Oct 08:28:05 08:39:24 76° 62° (ENE) 08:51:12 29.354 - 29.394 USB, Beacon 29.352 USB
SO-67 24 Oct 08:32:53 08:36:17 60° 283° (WNW) 08:39:40 435.3500 MHz FM
JAS-2 24 Oct 08:41:47 08:46:04 16° 298° (WNW) 08:50:21 435.800 - 435.900 CW/SSB, 435.910 FM
PANSAT 24 Oct 08:45:57 08:49:43 58° 170° (S) 08:53:29 not established
HO-68 24 Oct 08:53:24 08:56:55 14° 94° (E) 09:00:25 435.675 MHz FM
Saudisat 1A 24 Oct 09:16:45 09:19:06 14° 308° (NW) 09:21:27 436.775 MHz
UKube-1 24 Oct 09:55:48 09:57:44 13° 95° (E) 09:59:38 145.840 MHz, 145.915 MHz
MaSat-1 24 Oct 10:17:33 10:19:54 38° 66° (ENE) 10:22:07 437.345 MHz
PANSAT 24 Oct 10:25:58 10:29:46 72° 183° (S) 10:33:35 not established
FUNcube-1 24 Oct 10:34:18 10:36:01 12° 94° (E) 10:37:43 145.950 - 145.970 MHz USB
Oscar 11 24 Oct 10:36:00 10:40:01 38° 99° (E) 10:44:01 145.825 FM, Beacon 2401.500 USB
HO-68 24 Oct 10:37:54 10:45:05 77° 287° (WNW) 10:52:14 435.675 MHz FM
RS-15 24 Oct 10:42:36 10:50:42 23° 257° (WSW) 10:59:04 29.354 - 29.394 USB, Beacon 29.352 USB
ZACube-1 24 Oct 11:23:30 11:27:39 57° 100° (E) 11:31:44 437.345 MHz
UKube-1 24 Oct 11:29:56 11:34:00 39° 287° (WNW) 11:38:03 145.840 MHz, 145.915 MHz
KITSAT 1 24 Oct 11:36:12 11:43:01 31° 106° (ESE) 11:49:49 435.175 FM
PANSAT 24 Oct 12:06:10 12:09:46 39° 195° (SSW) 12:13:22 not established
ISS 24 Oct 12:06:17 12:09:12 29° 129° (SE) 12:12:07 145.800 FM
FUNcube-1 24 Oct 12:08:38 12:12:30 36° 286° (WNW) 12:16:18 145.950 - 145.970 MHz USB
Oscar 10/S400 24 Oct 12:08:49 12:37:03 39° 154° (SSE) 12:54:04 145.825 - 145.975 CW/USB, Beacon 145.810 USB
Oscar 11 24 Oct 12:13:47 12:15:48 13° 291° (WNW) 12:17:49 145.825 FM, Beacon 2401.500 USB
HO-68 24 Oct 12:30:27 12:31:36 10° 302° (WNW) 12:32:45 435.675 MHz FM
Oscar 16 24 Oct 12:52:01 12:53:13 11° 65° (ENE) 12:54:25 437.025 USB, Beacon 2401.1428
SO-50 24 Oct 13:03:31 13:07:53 63° 115° (ESE) 13:12:23 436.795 FM
JAS-1B 24 Oct 13:11:07 13:14:47 17° 67° (ENE) 13:18:19 435.800 - 435.900 CW/SSB
KITSAT 1 24 Oct 13:30:22 13:38:02 46° 301° (WNW) 13:45:44 435.175 FM
Oscar 19 24 Oct 13:41:35 13:46:18 38° 72° (ENE) 13:51:02 437.125 CW, 437.150 USB
ISS 24 Oct 13:43:28 13:45:53 19° 322° (NW) 13:48:19 145.800 FM
Sapphire 24 Oct 13:45:38 13:50:35 35° 61° (ENE) 13:55:29 437.095 MHz 1200 baud AX-25 AFSK
PANSAT 24 Oct 13:47:40 13:49:30 13° 206° (SSW) 13:51:19 not established
AO-27 24 Oct 13:59:06 14:03:01 22° 69° (ENE) 14:06:56 436.795 MHz FM
PCSat 24 Oct 14:07:55 14:13:18 63° 64° (ENE) 14:18:38 145.825 MHz
AO-Echo 24 Oct 14:25:43 14:30:23 52° 74° (ENE) 14:35:12 ?
Oscar 16 24 Oct 14:26:47 14:31:55 69° 258° (WSW) 14:37:04 437.025 USB, Beacon 2401.1428
UOSAT-12 24 Oct 14:29:44 14:34:01 40° 113° (ESE) 14:38:23 437.025 FM, 437.400 FM
Uribyol 2 24 Oct 14:45:31 14:50:42 73° 75° (ENE) 14:55:55 436.500 FM
SO-50 24 Oct 14:47:28 14:48:51 11° 310° (NW) 14:50:14 436.795 FM
ITAMSAT 1 24 Oct 14:51:26 14:56:37 78° 76° (ENE) 15:01:51 435.822 SSB
JAS-1B 24 Oct 14:59:06 15:05:09 48° 259° (WSW) 15:10:40 435.800 - 435.900 CW/SSB
Gurwin Techsat 1B 24 Oct 15:08:58 15:14:08 57° 74° (ENE) 15:19:20 435.225 FM
TMSAT-1 24 Oct 15:20:30 15:25:38 53° 74° (ENE) 15:30:47 436.925 FM
Oscar 19 24 Oct 15:22:09 15:25:41 19° 264° (W) 15:29:13 437.125 CW, 437.150 USB
Sapphire 24 Oct 15:29:32 15:33:44 23° 254° (WSW) 15:37:55 437.095 MHz 1200 baud AX-25 AFSK
AO-27 24 Oct 15:37:35 15:42:15 34° 262° (W) 15:46:57 436.795 MHz FM
PCSat 24 Oct 15:54:06 15:56:05 12° 257° (WSW) 15:58:03 145.825 MHz
AO-Echo 24 Oct 16:07:42 16:09:25 12° 267° (W) 16:11:09 ?
UOSAT-12 24 Oct 16:11:14 16:14:17 17° 307° (NW) 16:17:24 437.025 FM, 437.400 FM
Uosat F 24 Oct 16:11:26 16:15:08 21° 69° (ENE) 16:18:51 435.120 FM
AO-7 24 Oct 16:15:22 16:23:12 49° 68° (ENE) 16:31:03 29.400 - 29.500 MHz
Gurwin Techsat 1B 24 Oct 16:52:06 16:54:20 13° 267° (W) 16:56:36 435.225 FM
JAS-2 24 Oct 17:02:15 17:06:05 18° 63° (ENE) 17:10:10 435.800 - 435.900 CW/SSB, 435.910 FM
TMSAT-1 24 Oct 17:03:11 17:05:45 14° 266° (W) 17:08:20 436.925 FM
Hamsat 24 Oct 17:36:11 17:38:50 17° 71° (ENE) 17:41:28 145.90 MHz
Saudisat 1A 24 Oct 17:46:33 17:50:59 88° 63° (ENE) 17:55:23 436.775 MHz
Uosat F 24 Oct 17:49:11 17:53:39 33° 261° (W) 17:58:09 435.120 FM
OPAL 24 Oct 17:57:06 18:01:26 30° 100° (E) 18:05:44 ?
AO-7 24 Oct 18:09:11 18:16:03 29° 261° (W) 18:22:59 29.400 - 29.500 MHz
JAS-2 24 Oct 18:44:58 18:50:27 52° 261° (W) 18:56:40 435.800 - 435.900 CW/SSB, 435.910 FM
SO-67 24 Oct 19:00:49 19:02:51 15° 72° (ENE) 19:04:54 435.3500 MHz FM
Hamsat 24 Oct 19:10:51 19:14:30 29° 262° (W) 19:18:10 145.90 MHz
OPAL 24 Oct 19:36:18 19:40:05 22° 292° (WNW) 19:43:51 ?
STRAND 1 24 Oct 19:40:47 19:45:37 40° 99° (E) 19:50:24 ?
AO-40 24 Oct 20:00:53 22:33:57 46° 200° (SSW) 04:16:00 Beacon 2401.320
ISS 24 Oct 20:16:02 20:18:53 26° 40° (NE) 20:21:44 145.800 FM
SO-67 24 Oct 20:33:08 20:35:38 19° 264° (W) 20:38:08 435.3500 MHz FM
RS-15 24 Oct 20:38:06 20:43:41 15° 101° (E) 20:49:12 29.354 - 29.394 USB, Beacon 29.352 USB
HO-68 24 Oct 20:59:47 21:06:27 44° 69° (ENE) 21:13:08 435.675 MHz FM
STRAND 1 24 Oct 21:21:00 21:24:26 18° 292° (WNW) 21:27:52 ?
Oscar 11 24 Oct 21:26:36 21:29:04 15° 69° (ENE) 21:31:31 145.825 FM, Beacon 2401.500 USB
KITSAT 1 24 Oct 21:30:24 21:37:28 32° 55° (NE) 21:44:28 435.175 FM
SO-50 24 Oct 21:42:23 21:44:52 14° 51° (NE) 21:47:21 436.795 FM
ISS 24 Oct 21:52:59 21:55:25 19° 233° (SW) 21:57:51 145.800 FM
ZACube-1 24 Oct 22:14:17 22:17:56 24° 72° (ENE) 22:21:34 437.345 MHz
UKube-1 24 Oct 22:18:52 22:23:12 80° 77° (ENE) 22:27:34 145.840 MHz, 145.915 MHz
RS-15 24 Oct 22:43:24 22:54:32 89° 115° (ESE) 23:05:29 29.354 - 29.394 USB, Beacon 29.352 USB
HO-68 24 Oct 22:48:19 22:54:10 27° 262° (W) 23:00:05 435.675 MHz FM
FUNcube-1 24 Oct 22:57:57 23:02:33 80° 77° (ENE) 23:07:07 145.950 - 145.970 MHz USB
Oscar 11 24 Oct 23:00:59 23:04:54 34° 262° (W) 23:08:51 145.825 FM, Beacon 2401.500 USB
SO-50 24 Oct 23:20:57 23:25:45 60° 246° (WSW) 23:30:33 436.795 FM
KITSAT 1 24 Oct 23:25:20 23:32:55 47° 251° (WSW) 23:40:30 435.175 FM
MaSat-1 24 Oct 23:47:25 23:51:39 59° 110° (ESE) 23:55:34 437.345 MHz
ZACube-1 24 Oct 23:50:26 23:54:10 24° 263° (W) 23:57:52 437.345 MHz
UOSAT-12 25 Oct 00:44:41 00:49:23 85° 64° (ENE) 00:53:58 437.025 FM, 437.400 FM
RS-15 25 Oct 01:00:24 01:08:17 22° 317° (NW) 01:16:12 29.354 - 29.394 USB, Beacon 29.352 USB
Oscar 10/S400 25 Oct 01:14:28 02:30:29 31° 243° (WSW) 06:20:32 145.825 - 145.975 CW/USB, Beacon 145.810 USB
Oscar 19 25 Oct 01:59:51 02:03:46 22° 96° (E) 02:07:40 437.125 CW, 437.150 USB
AO-27 25 Oct 02:19:33 02:21:39 12° 94° (E) 02:23:45 436.795 MHz FM
AO-Echo 25 Oct 02:39:11 02:43:49 30° 97° (E) 02:48:23 ?
Oscar 16 25 Oct 02:44:38 02:49:45 71° 102° (ESE) 02:54:50 437.025 USB, Beacon 2401.1428
JAS-1B 25 Oct 02:46:56 02:53:57 64° 103° (ESE) 03:02:21 435.800 - 435.900 CW/SSB
PCSat 25 Oct 03:02:04 03:05:48 19° 105° (ESE) 03:09:32 145.825 MHz
Uribyol 2 25 Oct 03:04:41 03:09:36 43° 100° (E) 03:14:29 436.500 FM
ITAMSAT 1 25 Oct 03:10:41 03:15:42 46° 100° (E) 03:20:40 435.822 SSB
Gurwin Techsat 1B 25 Oct 03:31:34 03:36:29 38° 99° (E) 03:41:22 435.225 FM
Oscar 19 25 Oct 03:38:34 03:43:03 32° 289° (WNW) 03:47:31 437.125 CW, 437.150 USB
TMSAT-1 25 Oct 03:42:46 03:47:35 35° 98° (E) 03:52:23 436.925 FM
AO-27 25 Oct 03:56:17 04:01:24 56° 286° (WNW) 04:06:29 436.795 MHz FM
AO-Echo 25 Oct 04:18:03 04:22:22 26° 290° (WNW) 04:26:40 ?
Sapphire 25 Oct 04:20:51 04:26:13 75° 295° (WNW) 04:31:39 437.095 MHz 1200 baud AX-25 AFSK
AO-7 25 Oct 04:24:50 04:31:02 23° 97° (E) 04:37:12 29.400 - 29.500 MHz
Oscar 16 25 Oct 04:28:05 04:28:25 10° 295° (WNW) 04:28:46 437.025 USB, Beacon 2401.1428
JAS-1B 25 Oct 04:39:21 04:44:11 20° 292° (WNW) 04:49:34 435.800 - 435.900 CW/SSB
PCSat 25 Oct 04:43:45 04:48:49 41° 298° (WNW) 04:53:56 145.825 MHz
Uribyol 2 25 Oct 04:45:20 04:48:40 18° 293° (WNW) 04:52:00 436.500 FM
ITAMSAT 1 25 Oct 04:51:36 04:54:45 16° 293° (WNW) 04:57:53 435.822 SSB
OPAL 25 Oct 05:06:15 05:10:40 29° 69° (ENE) 05:15:02 ?
Gurwin Techsat 1B 25 Oct 05:12:19 05:16:07 20° 292° (WNW) 05:19:56 435.225 FM
TMSAT-1 25 Oct 05:23:16 05:27:13 22° 291° (WNW) 05:31:10 436.925 FM
RS-15 25 Oct 05:42:53 05:47:57 14° 34° (NE) 05:53:04 29.354 - 29.394 USB, Beacon 29.352 USB
JAS-2 25 Oct 06:00:03 06:07:05 35° 96° (E) 06:13:55 435.800 - 435.900 CW/SSB, 435.910 FM
Uosat F 25 Oct 06:02:24 06:07:24 65° 285° (WNW) 06:12:22 435.120 FM
AO-7 25 Oct 06:15:56 06:24:05 62° 290° (WNW) 06:32:14 29.400 - 29.500 MHz
PANSAT 25 Oct 06:41:10 06:44:20 25° 159° (SSE) 06:47:30 not established
OPAL 25 Oct 06:45:14 06:49:25 25° 261° (W) 06:53:36 ?
STRAND 1 25 Oct 06:51:03 06:55:31 31° 71° (ENE) 07:00:00 ?
Hamsat 25 Oct 07:01:41 07:05:53 76° 102° (ESE) 07:10:06 145.90 MHz
